Theta_e
323 323 324 323 321 321 323 321 326 325 323 323 325 325 323 324 325 323 324 325 325 326 327 326 325 327 328 329 328 331 332 330 330 327 331 332 331 330 330 330 329 327 324 320
322 324 321 321 320 321 322 320 321 323 322 322 322 323 321 322 323 324 324 324 323 322 323 326 325 324 325 326 326 330 331 332 331 328 325 328 331 330 330 330 331 329 328 326
322 321 321 321 321 322 321 321 322 322 321 321 322 323 322 322 322 323 323 324 324 323 322 322 324 325 324 324 325 325 325 329 329 329 328 329 330 331 330 329 329 329 329 329
322 320 322 321 322 321 322 318 320 322 321 324 321 326 320 320 321 321 323 323 323 323 323 323 321 324 325 324 323 323 325 325 328 330 331 329 327 329 325 326 329 329 329 329
322 322 323 323 322 321 323 319 320 321 322 321 321 324 321 319 320 320 320 323 324 323 322 322 323 321 321 324 324 324 324 324 325 327 330 330 329 328 327 326 326 328 329 329
319 319 320 321 321 320 319 320 321 322 323 324 322 321 320 320 320 320 320 321 322 322 322 321 320 320 320 320 321 324 324 324 324 325 328 330 329 329 329 328 327 326 325 325
320 320 319 320 320 320 321 322 323 325 324 324 319 321 320 318 318 319 321 321 320 319 318 318 318 318 319 319 319 318 319 320 321 323 326 329 329 330 328 327 327 326 325 325
320 321 320 319 320 322 322 321 323 324 323 320 318 318 318 318 318 318 320 320 319 318 315 315 315 315 314 315 316 317 318 319 320 321 324 327 328 329 328 328 327 326 326 325
319 321 319 319 320 321 322 322 319 319 308 316 318 318 317 316 316 318 317 318 317 315 314 315 315 315 315 315 316 315 315 317 319 319 323 328 329 330 329 327 328 327 327 327
313 318 317 320 319 319 320 319 320 320 320 319 316 316 316 318 318 316 315 315 314 313 315 315 315 315 314 313 315 316 315 314 316 317 320 323 327 329 329 329 330 329 328 328
314 315 315 317 320 320 319 321 320 320 317 320 318 316 315 316 314 313 313 313 315 315 315 315 315 313 310 312 312 313 314 314 315 315 317 321 323 327 328 329 329 329 330 329
315 314 317 318 316 316 318 320 319 319 320 317 317 318 316 315 313 314 314 316 316 315 315 315 314 310 309 309 312 312 312 312 314 314 315 315 316 319 323 325 326 327 328 330
314 314 317 318 315 318 318 317 318 319 316 317 316 315 313 313 313 315 315 316 316 315 315 313 309 310 310 311 311 312 312 312 312 314 313 314 314 315 319 320 322 324 326 327
314 315 316 318 315 316 318 318 318 318 319 317 318 317 316 314 311 314 316 316 315 314 313 311 309 309 310 310 311 311 312 311 312 312 313 314 313 313 314 317 321 323 325 326
314 313 314 314 313 312 312 315 316 317 316 317 315 315 314 312 313 313 314 315 314 311 311 310 310 310 310 311 310 311 311 311 311 312 312 313 313 312 311 313 315 319 325 328
311 309 311 309 311 311 312 313 314 313 313 313 314 314 312 314 313 314 315 314 310 309 309 310 310 310 310 309 309 309 309 311 312 312 312 312 312 312 311 310 313 316 321 324
311 308 307 306 310 310 310 310 310 311 312 313 314 313 312 311 312 312 311 310 309 310 310 310 309 307 307 307 307 307 309 309 310 311 311 311 312 312 312 310 311 316 317 319
308 307 304 302 303 309 307 308 309 309 309 310 311 310 309 309 309 309 307 306 306 306 306 306 305 304 304 304 305 306 307 308 308 309 310 311 311 312 312 311 309 312 317 319
308 307 308 306 301 305 306 306 307 307 307 307 307 308 308 308 309 305 303 301 302 302 302 302 302 303 304 305 306 307 308 308 308 309 310 310 311 311 312 311 310 309 313 317
305 307 308 305 304 303 306 304 307 306 306 301 304 303 302 305 305 302 301 299 300 299 299 300 301 302 302 301 302 305 306 307 308 307 310 310 310 311 312 312 311 309 308 310
305 307 308 307 306 303 305 306 306 306 304 296 296 294 295 298 296 294 295 298 298 298 299 300 299 299 300 299 299 300 302 304 306 307 308 311 310 310 311 311 311 309 307 308
303 306 304 305 302 300 304 303 303 295 293 290 290 288 288 288 289 290 290 290 292 295 297 296 296 298 297 298 299 301 302 301 303 305 307 310 311 310 310 309 310 310 307 307
302 303 302 303 301 297 292 289 286 286 287 285 285 285 285 286 287 287 287 287 287 289 291 293 293 295 297 297 297 298 300 301 302 304 306 307 310 311 309 309 308 309 307 306
301 301 300 301 294 294 287 285 284 283 283 282 283 282 283 282 282 283 284 283 283 283 284 286 289 291 294 296 296 295 296 298 300 302 305 307 307 309 309 307 306 305 307 306
293 299 297 298 286 287 286 282 281 281 281 281 281 279 279 279 281 280 279 280 280 280 280 281 283 285 287 291 294 294 294 295 297 300 302 304 305 307 307 307 305 305 305 306
281 281 291 289 278 279 282 282 279 279 277 277 277 280 280 278 277 277 278 276 277 277 278 279 279 279 280 284 288 291 292 291 293 295 297 299 299 302 304 303 305 304 302 302
Wind_Speed
16 6 14 26 12 9 5 11 11 10 2 2 10 11 11 19 23 22 21 22 24 24 23 21 20 23 27 27 28 31 30 30 31 30 35 36 36 33 32 31 31 30 29 28
6 15 21 9 13 13 11 7 13 14 5 3 8 14 11 18 19 22 23 26 26 25 28 26 24 26 29 31 32 33 35 34 34 33 33 37 37 38 36 34 33 33 31 30
19 16 15 14 14 13 12 15 8 4 11 6 9 16 16 21 28 35 39 35 32 32 30 29 29 28 30 33 35 35 37 36 36 35 33 34 34 38 39 39 37 38 37 34
15 20 16 20 22 16 16 12 8 8 2 2 5 9 9 10 15 13 27 36 34 33 37 35 33 30 34 36 35 34 35 36 36 37 37 39 40 41 43 42 41 39 38 37
10 17 15 17 21 16 6 14 17 10 9 3 11 6 5 10 9 10 17 20 27 29 30 28 29 33 34 29 34 34 34 35 36 37 41 41 42 43 41 38 38 39 40 39
17 9 16 21 16 21 8 4 11 8 7 7 10 13 6 10 13 11 11 17 23 21 14 12 11 13 18 20 14 23 28 32 34 36 40 44 44 44 43 41 40 39 39 39
18 13 5 8 13 9 12 11 4 5 5 9 7 11 15 6 11 3 2 5 9 12 12 11 10 11 11 14 18 23 27 34 38 37 39 44 46 45 45 44 43 41 40 41
8 9 16 10 11 10 20 13 4 7 6 4 1 7 6 10 6 7 7 5 9 9 14 21 21 20 13 9 14 18 23 30 35 36 38 43 46 47 47 46 45 44 42 41
5 7 9 15 7 13 10 10 1 3 4 2 5 7 8 10 4 4 7 8 10 12 13 13 17 22 19 18 20 19 17 20 27 30 34 39 44 47 48 47 46 46 44 43
6 1 3 11 3 2 9 8 5 3 7 5 5 5 6 2 3 6 9 17 12 12 13 17 21 25 23 28 22 20 19 16 22 26 29 33 39 43 46 46 46 45 44 44
7 2 3 1 5 10 4 8 2 2 1 4 2 4 3 5 13 10 11 13 11 8 11 17 22 25 31 29 27 22 23 25 18 19 25 29 33 37 40 43 45 45 44 43
6 3 2 2 3 5 2 4 7 4 5 3 3 5 6 5 7 19 14 7 9 10 11 18 19 30 31 31 30 30 26 22 21 17 17 22 26 31 37 41 42 43 43 43
10 3 3 5 2 8 5 4 5 6 3 5 4 5 3 14 10 9 7 12 9 9 13 20 33 32 33 31 30 30 30 26 23 20 19 19 22 25 31 36 37 39 41 42
18 4 5 2 6 3 4 16 16 13 2 4 7 9 15 11 8 8 14 16 15 19 22 25 34 36 34 33 31 31 30 29 27 25 22 22 21 24 26 29 33 35 38 40
7 5 4 6 3 6 7 7 14 20 18 8 20 17 15 6 3 8 15 18 13 20 23 32 33 32 30 30 34 34 33 32 31 29 27 25 24 24 25 28 30 32 33 36
2 1 1 2 1 1 8 7 6 13 13 10 19 22 7 10 11 15 16 11 22 27 31 29 28 27 25 32 35 36 36 34 33 34 32 29 27 28 27 27 31 32 34 35
6 4 3 3 1 4 2 14 10 5 8 9 14 23 4 9 8 10 18 30 29 22 20 17 18 25 32 36 37 39 37 35 34 35 34 31 30 30 29 30 30 33 35 35
6 6 2 2 4 2 7 3 13 17 17 14 15 18 21 23 17 16 17 18 17 21 20 22 28 35 37 39 41 39 40 37 34 36 35 31 31 31 31 32 33 32 34 37
6 4 2 4 3 4 8 4 5 5 7 8 11 14 20 23 19 8 17 21 17 20 24 29 33 38 39 39 40 43 43 44 38 34 37 33 30 32 32 34 34 34 34 34
5 6 2 2 3 6 4 2 6 4 4 19 18 14 17 15 3 2 27 28 29 29 33 36 39 41 41 42 43 46 47 46 43 36 34 37 33 31 33 33 34 37 37 37
4 2 5 3 3 7 5 1 4 6 3 13 18 17 16 6 7 20 21 28 31 35 41 44 46 47 46 47 48 48 50 48 45 43 38 34 37 37 34 32 34 37 41 41
6 6 4 3 3 5 2 4 3 5 12 17 16 17 15 14 19 22 26 27 36 40 44 47 50 52 51 49 46 49 49 50 48 47 43 37 35 36 37 33 33 36 42 44
3 5 5 7 4 5 20 23 13 10 7 14 17 21 24 28 30 35 37 34 38 43 47 47 48 52 51 49 45 49 50 49 50 49 47 42 39 37 35 36 34 36 41 46
2 1 2 4 7 8 18 13 14 19 13 16 19 24 27 29 31 37 40 40 41 41 42 48 53 54 54 50 50 48 50 51 51 51 48 44 43 40 37 36 38 39 42 46
1 3 2 1 8 11 15 16 27 21 22 25 27 27 28 33 38 39 41 42 40 41 47 45 50 51 51 51 51 52 51 49 49 48 49 46 43 43 41 39 39 41 43 46
7 4 1 2 6 5 9 24 22 23 27 32 35 40 34 33 37 38 41 40 44 46 46 47 44 44 47 48 50 48 46 43 46 48 48 47 45 43 42 40 40 40 42 45
Wind_Direction
178 180 211 208 198 189 282 327 325 319 12 6 254 264 263 267 262 254 245 242 256 264 264 251 233 237 240 243 233 228 234 237 238 229 225 228 229 230 227 231 240 242 242 239
191 210 215 189 194 200 225 281 286 294 4 7 304 282 275 279 273 275 267 256 257 255 256 262 251 239 236 246 244 229 231 235 240 244 238 236 236 239 243 238 233 240 243 243
207 226 212 179 178 184 201 213 204 248 332 311 302 281 271 261 263 255 256 256 250 251 253 251 249 240 238 243 246 240 237 234 240 246 246 239 238 240 239 243 243 241 243 244
212 219 198 184 188 183 197 189 185 175 168 250 25 294 282 274 256 235 242 241 242 245 245 246 249 247 241 245 252 248 243 241 238 242 241 242 239 235 243 244 246 247 245 244
197 186 179 201 192 183 200 163 199 189 183 209 239 261 248 226 254 251 253 251 231 238 248 252 255 253 255 257 251 253 250 248 245 243 243 242 243 246 249 249 246 245 250 251
216 190 198 206 191 193 169 198 187 205 203 229 223 214 224 232 240 245 237 245 246 250 259 254 254 258 253 251 253 246 249 251 253 252 244 242 245 244 244 245 246 246 248 253
211 217 213 169 196 174 156 149 181 198 208 230 196 199 244 295 282 272 62 43 20 18 21 3 338 305 278 276 264 255 254 254 255 252 248 242 244 244 247 248 247 247 247 248
213 175 189 192 203 182 187 168 180 196 179 212 28 236 264 226 254 36 62 103 84 79 72 66 41 44 26 321 288 279 264 254 255 251 249 246 245 245 247 248 249 250 250 251
196 234 194 183 189 161 172 202 292 96 20 68 210 240 284 260 246 167 127 102 101 81 73 35 37 22 14 11 12 3 300 275 259 254 248 245 245 244 247 250 249 249 251 251
170 318 243 185 117 246 175 141 158 235 153 206 246 243 240 125 128 77 78 95 74 110 25 19 16 13 11 3 1 4 3 318 274 264 258 251 246 246 248 250 248 251 251 248
162 270 263 182 200 183 153 170 177 179 149 171 161 245 319 100 113 101 93 90 77 60 27 12 3 359 359 350 346 341 342 350 333 273 256 253 249 249 251 250 252 250 249 250
143 155 233 19 192 321 183 149 181 210 156 239 118 267 282 75 126 118 131 125 83 70 13 357 351 338 337 342 341 337 335 335 339 325 281 265 261 254 250 252 253 254 248 244
158 176 163 169 307 157 206 198 265 300 63 190 142 268 250 71 95 121 110 78 43 25 351 341 342 340 338 340 337 336 337 335 329 321 316 294 284 268 258 257 255 253 250 246
164 168 171 139 41 91 193 190 205 227 183 176 230 247 279 309 334 356 5 353 352 342 337 332 332 334 337 338 342 339 336 337 333 321 308 309 301 285 277 268 261 256 251 247
157 184 218 258 193 124 298 231 202 207 222 212 247 252 250 257 332 349 337 324 325 328 326 320 323 331 335 342 340 336 333 330 330 324 317 307 304 299 284 276 268 260 249 243
146 230 181 274 294 321 175 229 266 230 243 251 259 270 293 275 332 333 318 312 322 316 314 317 323 334 347 340 336 331 332 330 325 322 321 317 310 302 294 280 268 257 251 248
158 118 102 257 143 71 349 228 227 252 244 233 251 259 321 288 281 294 301 296 295 313 330 355 359 347 344 341 337 338 330 329 324 319 316 314 313 307 297 288 274 259 253 250
144 119 93 163 53 204 239 183 207 227 244 249 263 271 276 282 297 307 58 44 18 8 1 351 341 337 335 335 334 331 326 323 324 322 313 308 308 305 302 291 282 271 257 249
29 144 120 161 190 312 309 246 197 175 260 247 254 269 275 291 295 93 18 12 4 347 341 337 335 334 334 335 330 326 326 326 320 320 323 311 301 300 295 289 284 277 265 255
48 49 111 112 180 216 256 328 215 131 282 28 28 30 16 1 12 37 335 339 335 336 334 331 329 329 329 330 327 321 322 325 328 320 318 318 303 292 294 290 280 275 267 260
140 143 203 185 219 275 246 308 49 127 245 29 27 24 20 25 345 316 326 320 323 322 322 324 322 323 322 324 323 316 315 317 321 319 313 312 313 298 286 287 282 269 265 259
154 155 180 163 191 285 29 104 178 7 28 13 9 8 357 336 327 325 326 324 322 319 319 319 318 317 319 320 320 315 313 312 311 313 311 307 307 307 290 283 279 274 263 257
163 174 182 179 168 75 63 92 77 41 29 8 355 343 339 333 326 322 321 320 317 316 316 317 315 314 314 316 316 312 314 312 307 305 307 306 302 301 297 285 278 272 262 255
275 312 154 85 2 85 103 83 38 14 6 340 333 329 328 321 320 316 316 316 316 318 315 312 311 310 309 310 309 309 310 310 306 302 301 302 300 298 296 287 278 269 263 255
337 353 223 206 58 113 70 23 353 344 334 329 328 328 324 319 316 316 315 315 315 310 311 312 309 309 306 306 304 304 307 308 304 300 299 297 296 294 291 289 282 273 266 260
11 24 49 121 54 341 298 325 335 335 338 331 326 320 319 319 315 316 311 312 313 313 314 314 313 306 305 304 303 302 303 304 300 298 296 295 296 292 287 285 284 278 270 260